This demonstration page uses our WeatherBlox Daily Observations layout. Learn more.

Left ArrowRight Arrow

38.80484, -77.04692

Hourly Observations for August 16, 2020

Temp ( °F °C ) Dew Point ( °F °C ) Humidity (%) Winds ( mph kmh ) Pressure ( in mb ) Visibility ( mi km ) Precip ( " mm )
12:52 am 00:52 Cloudy with Rain 71 21.7 67 19.4 87 87 NNE 13 20 29.95 1014 4 6 0.18 4.57
1:16 am 01:16 Cloudy with Light Rain 70 21.1 66 18.9 87 87 NNE 14 22 29.95 1014 10 16 0.04 1.02
1:52 am 01:52 Cloudy with Light Rain 69 20.6 65 18.3 87 87 NNE 15 24 29.95 1014 6 10 0.09 2.29
2:25 am 02:25 Cloudy with Heavy Rain 68 20 64 17.8 87 87 N 17 28 29.95 1014 3 5 0.09 2.29
2:52 am 02:52 Cloudy with Heavy Rain 67 19.4 64 17.8 91 91 NNE 16 26 29.94 1014 4 6 0.17 4.32
3:34 am 03:34 Cloudy with Heavy Rain 66 18.9 64 17.8 93 93 N 17 28 29.93 1014 3 5 0.25 6.35
3:52 am 03:52 Cloudy with Heavy Rain 66 18.9 64 17.8 93 93 NNE 17 28 29.93 1014 3 5 0.35 8.89
4:19 am 04:19 Cloudy with Heavy Rain 66 18.9 64 17.8 93 93 NNE 16 26 29.93 1014 3 5 0.13 3.30
4:25 am 04:25 Cloudy with Heavy Rain 66 18.9 64 17.8 93 93 NNE 17 28 29.93 1014 3 4 0.17 4.32
4:41 am 04:41 Cloudy with Heavy Rain 66 18.9 64 17.8 93 93 NNE 13 20 29.93 1014 3 5 0.31 7.87
4:52 am 04:52 Cloudy with Rain 66 18.9 64 17.8 93 93 NNE 13 20 29.93 1014 4 6 0.35 8.89
4:59 am 04:59 Cloudy with Light Rain 66 18.9 64 17.8 93 93 NNE 13 20 29.93 1014 5 8 0.01 0.25
5:13 am 05:13 Cloudy with Light Rain 66 18.9 64 17.8 93 93 NNE 13 20 29.93 1014 6 10 0.03 0.76
5:52 am 05:52 Cloudy with Drizzle 67 19.4 64 17.8 91 91 NE 14 22 29.92 1013 10 16 0.06 1.52
6:52 am 06:52 Cloudy 68 20 65 18.3 90 90 NNE 12 19 29.93 1014 10 16 0.01 0.25
7:52 am 07:52 Cloudy with Light Rain 68 20 65 18.3 90 90 NNE 9 15 29.93 1014 10 16 0.00 0.00
8:41 am 08:41 Cloudy with Light Rain 69 20.6 65 18.3 87 87 N 12 19 29.94 1014 10 16 0.00 0.00
8:52 am 08:52 Cloudy with Light Rain 69 20.6 65 18.3 87 87 N 13 20 29.93 1014 10 16 0.00 0.00
9:44 am 09:44 Cloudy with Light Rain 70 21.1 66 18.9 87 87 NNE 9 15 29.93 1013 10 16 0.01 0.25
9:52 am 09:52 Cloudy with Light Rain 70 21.1 66 18.9 87 87 NNE 12 19 29.93 1014 10 16 0.01 0.25
10:52 am 10:52 Cloudy with Light Rain 71 21.7 68 20 90 90 N 10 17 29.95 1014 7 11 0.00 0.00
11:23 am 11:23 Cloudy with Light Rain 71 21.7 67 19.4 87 87 N 9 15 29.95 1014 8 13 0.00 0.00
11:32 am 11:32 Cloudy with Light Rain 70 21.1 67 19.4 90 90 N 10 17 29.95 1014 4 6 0.00 0.00
11:52 am 11:52 Cloudy with Light Rain 71 21.7 68 20 90 90 N 13 20 29.95 1014 6 10 0.01 0.25
12:34 pm 12:34 Cloudy with Light Rain 71 21.7 67 19.4 87 87 NNE 10 17 29.95 1014 8 13 0.00 0.00
12:52 pm 12:52 Cloudy 72 22.2 67 19.4 84 84 NNE 13 20 29.95 1014 9 14 0.00 0.00
1:16 pm 13:16 Cloudy 74 23.3 67 19.4 79 79 N 12 19 29.94 1014 10 16 0.00 0.00
1:52 pm 13:52 Cloudy with Light Rain 73 22.8 67 19.4 81 81 NNE 10 17 29.94 1014 10 16 0.00 0.00
2:21 pm 14:21 Cloudy 75 23.9 66 18.9 74 74 NNE 8 13 29.94 1014 10 16 0.00 0.00
2:52 pm 14:52 Cloudy 74 23.3 67 19.4 79 79 NE 10 17 29.94 1014 10 16 0.00 0.00
3:52 pm 15:52 Cloudy 77 25 67 19.4 71 71 NNE 10 17 29.93 1013 10 16 0.00 0.00
4:52 pm 16:52 Cloudy 75 23.9 66 18.9 74 74 NNE 13 20 29.92 1013 10 16 0.00 0.00
5:52 pm 17:52 Cloudy 75 23.9 65 18.3 71 71 N 12 19 29.92 1013 10 16 0.00 0.00
6:52 pm 18:52 Mostly Cloudy 74 23.3 65 18.3 74 74 NNE 12 19 29.92 1013 10 16 0.00 0.00
7:52 pm 19:52 Partly Cloudy 72 22.2 64 17.8 76 76 NNE 5 7 29.92 1013 10 16 0.00 0.00
8:52 pm 20:52 Mostly Clear 72 22.2 64 17.8 76 76 N 7 11 29.93 1014 10 16 0.00 0.00
9:52 pm 21:52 Clear 71 21.7 64 17.8 79 79 NNW 5 7 29.94 1014 10 16 0.00 0.00
10:52 pm 22:52 Clear 71 21.7 65 18.3 81 81 Calm 29.95 1014 10 16 0.00 0.00
11:52 pm 23:52 Clear 68 20 65 18.3 90 90 Calm 29.96 1015 10 16 0.00 0.00

Powered by AerisWeather